Time,TemperatureF,DewpointF,PressureIn,WindDirection,WindDirectionDegrees,WindSpeedMPH,WindSpeedGustMPH,Humidity,HourlyPrecipIn,Conditions,Clouds,dailyrainin,SoftwareType,DateUTC
2013-05-04 00:00:00,59.1,54.9,29.93,SSE,163,0.0,0.0,86,0.00,,---,0.00,VWS V14.01,2013-05-04 04:00:00,
2013-05-04 00:01:00,59.1,54.9,29.93,SSE,163,0.0,0.0,86,0.00,,---,0.00,VWS V14.01,2013-05-04 04:01:00,
2013-05-04 00:06:00,59.0,54.8,29.94,SW,236,0.0,1.0,86,0.00,,---,0.00,VWS V14.01,2013-05-04 04:06:00,
2013-05-04 00:10:00,59.0,54.8,29.94,North,6,0.0,1.0,86,0.00,,---,0.00,VWS V14.01,2013-05-04 04:10:00,
2013-05-04 00:11:00,59.0,54.8,29.94,NNE,23,0.0,0.0,86,0.00,,---,0.00,VWS V14.01,2013-05-04 04:11:00,
2013-05-04 00:16:00,59.0,54.5,29.94,West,280,0.0,1.0,85,0.00,,---,0.00,VWS V14.01,2013-05-04 04:16:00,
2013-05-04 00:20:00,59.0,54.8,29.94,East,79,1.0,1.0,86,0.00,,---,0.00,VWS V14.01,2013-05-04 04:20:00,
2013-05-04 00:21:00,59.0,54.8,29.94,East,79,0.0,1.0,86,0.00,,---,0.00,VWS V14.01,2013-05-04 04:21:00,
2013-05-04 00:26:00,59.0,54.8,29.93,WNW,284,0.0,1.0,86,0.00,,---,0.00,VWS V14.01,2013-05-04 04:26:00,
2013-05-04 00:30:00,59.0,54.8,29.93,WSW,245,0.0,3.0,86,0.00,,---,0.00,VWS V14.01,2013-05-04 04:30:00,
2013-05-04 00:31:00,59.0,54.8,29.93,WSW,250,0.0,1.0,86,0.00,,---,0.00,VWS V14.01,2013-05-04 04:31:00,
2013-05-04 00:36:00,59.0,54.8,29.93,NNE,23,2.0,2.0,86,0.00,,---,0.00,VWS V14.01,2013-05-04 04:36:00,
2013-05-04 00:40:00,59.1,54.9,29.93,WSW,240,0.0,2.0,86,0.00,,---,0.00,VWS V14.01,2013-05-04 04:40:00,
2013-05-04 00:41:00,59.1,54.9,29.93,WSW,252,0.0,1.0,86,0.00,,---,0.00,VWS V14.01,2013-05-04 04:41:00,
2013-05-04 00:46:00,59.1,54.9,29.93,WNW,295,0.0,1.0,86,0.00,,---,0.00,VWS V14.01,2013-05-04 04:46:00,
2013-05-04 00:50:00,59.1,54.9,29.93,NE,34,0.0,1.0,86,0.00,,---,0.00,VWS V14.01,2013-05-04 04:50:00,
2013-05-04 00:51:00,59.1,54.9,29.93,North,9,0.0,0.0,86,0.00,,---,0.00,VWS V14.01,2013-05-04 04:51:00,
2013-05-04 00:56:00,59.1,54.9,29.93,NNE,23,0.0,1.0,86,0.00,,---,0.00,VWS V14.01,2013-05-04 04:56:00,
2013-05-04 01:00:00,59.1,54.9,29.93,WNW,295,0.0,1.0,86,0.00,,---,0.00,VWS V14.01,2013-05-04 05:00:00,
2013-05-04 01:01:00,59.1,54.9,29.92,NNE,22,0.0,1.0,86,0.00,,---,0.00,VWS V14.01,2013-05-04 05:01:00,
2013-05-04 01:06:00,59.1,54.9,29.92,WSW,246,0.0,2.0,86,0.00,,---,0.00,VWS V14.01,2013-05-04 05:06:00,
2013-05-04 01:10:00,59.1,54.9,29.92,SW,231,1.0,2.0,86,0.00,,---,0.00,VWS V14.01,2013-05-04 05:10:00,
2013-05-04 01:11:00,59.1,54.9,29.92,SW,231,0.0,1.0,86,0.00,,---,0.00,VWS V14.01,2013-05-04 05:11:00,
2013-05-04 01:16:00,59.1,54.9,29.92,SW,225,0.0,1.0,86,0.00,,---,0.00,VWS V14.01,2013-05-04 05:16:00,
2013-05-04 01:20:00,59.0,54.8,29.92,NE,34,0.0,1.0,86,0.00,,---,0.00,VWS V14.01,2013-05-04 05:20:00,
2013-05-04 01:21:00,59.0,54.8,29.92,NE,34,0.0,0.0,86,0.00,,---,0.00,VWS V14.01,2013-05-04 05:21:00,
2013-05-04 01:26:00,59.0,54.8,29.92,NE,56,0.0,2.0,86,0.00,,---,0.00,VWS V14.01,2013-05-04 05:26:00,
2013-05-04 01:30:00,59.0,55.1,29.92,NE,54,0.0,2.0,87,0.00,,---,0.00,VWS V14.01,2013-05-04 05:30:00,
2013-05-04 01:31:00,59.0,55.1,29.92,ENE,57,0.0,0.0,87,0.00,,---,0.00,VWS V14.01,2013-05-04 05:31:00,
2013-05-04 01:36:00,59.0,54.8,29.92,ENE,58,0.0,1.0,86,0.00,,---,0.00,VWS V14.01,2013-05-04 05:36:00,
2013-05-04 01:40:00,59.0,55.1,29.92,NNW,341,0.0,1.0,87,0.00,,---,0.00,VWS V14.01,2013-05-04 05:40:00,
2013-05-04 01:41:00,59.0,55.1,29.92,WNW,293,0.0,0.0,87,0.00,,---,0.00,VWS V14.01,2013-05-04 05:41:00,
2013-05-04 01:46:00,59.0,55.1,29.91,NNE,32,0.0,1.0,87,0.00,,---,0.00,VWS V14.01,2013-05-04 05:46:00,
2013-05-04 01:50:00,58.9,55.0,29.91,West,281,0.0,1.0,87,0.00,,---,0.00,VWS V14.01,2013-05-04 05:50:00,
2013-05-04 01:51:00,58.9,55.0,29.91,WNW,288,0.0,1.0,87,0.00,,---,0.00,VWS V14.01,2013-05-04 05:51:00,
2013-05-04 01:56:00,58.8,55.0,29.91,NNW,329,0.0,2.0,87,0.00,,---,0.00,VWS V14.01,2013-05-04 05:56:00,
2013-05-04 02:00:00,58.7,54.8,29.91,NW,304,0.0,2.0,87,0.00,,---,0.00,VWS V14.01,2013-05-04 06:00:00,
2013-05-04 02:01:00,58.7,54.8,29.91,SW,231,0.0,0.0,87,0.00,,---,0.00,VWS V14.01,2013-05-04 06:01:00,
2013-05-04 02:06:00,58.7,54.8,29.91,North,352,0.0,1.0,87,0.00,,---,0.00,VWS V14.01,2013-05-04 06:06:00,
2013-05-04 02:10:00,58.6,54.8,29.91,NE,34,0.0,1.0,87,0.00,,---,0.00,VWS V14.01,2013-05-04 06:10:00,
2013-05-04 02:11:00,58.6,54.8,29.91,NNE,28,0.0,0.0,87,0.00,,---,0.00,VWS V14.01,2013-05-04 06:11:00,
2013-05-04 02:16:00,58.5,54.7,29.90,West,264,0.0,1.0,87,0.00,,---,0.00,VWS V14.01,2013-05-04 06:16:00,
2013-05-04 02:20:00,58.4,54.5,29.90,SSE,158,0.0,1.0,87,0.00,,---,0.00,VWS V14.01,2013-05-04 06:20:00,
2013-05-04 02:21:00,58.4,54.5,29.90,West,262,0.0,1.0,87,0.00,,---,0.00,VWS V14.01,2013-05-04 06:21:00,
2013-05-04 02:26:00,58.4,54.5,29.90,ENE,68,0.0,2.0,87,0.00,,---,0.00,VWS V14.01,2013-05-04 06:26:00,
2013-05-04 02:30:00,58.4,54.5,29.89,West,267,0.0,2.0,87,0.00,,---,0.00,VWS V14.01,2013-05-04 06:30:00,
2013-05-04 02:31:00,58.3,54.5,29.89,SW,214,0.0,1.0,87,0.00,,---,0.00,VWS V14.01,2013-05-04 06:31:00,
2013-05-04 02:36:00,58.3,54.5,29.89,WNW,291,0.0,1.0,87,0.00,,---,0.00,VWS V14.01,2013-05-04 06:36:00,
2013-05-04 02:40:00,58.3,54.5,29.89,NNW,329,0.0,1.0,87,0.00,,---,0.00,VWS V14.01,2013-05-04 06:40:00,
2013-05-04 02:41:00,58.3,54.5,29.89,WSW,245,1.0,1.0,87,0.00,,---,0.00,VWS V14.01,2013-05-04 06:41:00,
2013-05-04 02:46:00,58.3,54.1,29.89,NE,54,1.0,2.0,86,0.00,,---,0.00,VWS V14.01,2013-05-04 06:46:00,
2013-05-04 02:50:00,58.4,54.2,29.89,SW,222,0.0,3.0,86,0.00,,---,0.00,VWS V14.01,2013-05-04 06:50:00,
2013-05-04 02:51:00,58.4,54.2,29.89,SW,222,0.0,0.0,86,0.00,,---,0.00,VWS V14.01,2013-05-04 06:51:00,
2013-05-04 02:56:00,58.4,54.2,29.89,NNE,32,0.0,1.0,86,0.00,,---,0.00,VWS V14.01,2013-05-04 06:56:00,
2013-05-04 03:00:00,58.3,54.1,29.89,North,359,0.0,2.0,86,0.00,,---,0.00,VWS V14.01,2013-05-04 07:00:00,
2013-05-04 03:01:00,58.3,54.1,29.89,North,356,0.0,0.0,86,0.00,,---,0.00,VWS V14.01,2013-05-04 07:01:00,
2013-05-04 03:06:00,58.3,54.1,29.89,WSW,248,0.0,1.0,86,0.00,,---,0.00,VWS V14.01,2013-05-04 07:06:00,
2013-05-04 03:10:00,58.3,53.8,29.89,NE,34,2.0,3.0,85,0.00,,---,0.00,VWS V14.01,2013-05-04 07:10:00,
2013-05-04 03:11:00,58.2,53.7,29.89,ENE,75,0.0,2.0,85,0.00,,---,0.00,VWS V14.01,2013-05-04 07:11:00,
2013-05-04 03:16:00,58.2,53.7,29.88,NNW,332,0.0,2.0,85,0.00,,---,0.00,VWS V14.01,2013-05-04 07:16:00,
2013-05-04 03:20:00,58.2,53.7,29.89,East,100,0.0,2.0,85,0.00,,---,0.00,VWS V14.01,2013-05-04 07:20:00,
2013-05-04 03:21:00,58.2,53.7,29.88,WSW,246,0.0,1.0,85,0.00,,---,0.00,VWS V14.01,2013-05-04 07:21:00,
2013-05-04 03:26:00,58.2,53.7,29.88,WNW,294,0.0,2.0,85,0.00,,---,0.00,VWS V14.01,2013-05-04 07:26:00,
2013-05-04 03:30:00,58.1,53.3,29.88,NNE,29,0.0,2.0,84,0.00,,---,0.00,VWS V14.01,2013-05-04 07:30:00,
2013-05-04 03:31:00,58.1,53.3,29.89,NNE,28,0.0,0.0,84,0.00,,---,0.00,VWS V14.01,2013-05-04 07:31:00,
2013-05-04 03:36:00,58.0,53.2,29.88,NE,47,1.0,2.0,84,0.00,,---,0.00,VWS V14.01,2013-05-04 07:36:00,
2013-05-04 03:40:00,57.9,53.1,29.88,WNW,301,0.0,2.0,84,0.00,,---,0.00,VWS V14.01,2013-05-04 07:40:00,
2013-05-04 03:41:00,57.9,53.1,29.88,NNE,28,0.0,0.0,84,0.00,,---,0.00,VWS V14.01,2013-05-04 07:41:00,
2013-05-04 03:46:00,57.8,53.0,29.88,WSW,242,0.0,2.0,84,0.00,,---,0.00,VWS V14.01,2013-05-04 07:46:00,
2013-05-04 03:50:00,57.8,53.0,29.88,SW,222,0.0,2.0,84,0.00,,---,0.00,VWS V14.01,2013-05-04 07:50:00,
2013-05-04 03:51:00,57.8,53.0,29.88,WSW,245,1.0,1.0,84,0.00,,---,0.00,VWS V14.01,2013-05-04 07:51:00,
2013-05-04 03:56:00,57.7,52.9,29.88,SW,236,0.0,1.0,84,0.00,,---,0.00,VWS V14.01,2013-05-04 07:56:00,
2013-05-04 04:00:00,57.7,52.6,29.89,WNW,283,0.0,1.0,83,0.00,,---,0.00,VWS V14.01,2013-05-04 08:00:00,
2013-05-04 04:01:00,57.6,52.5,29.89,West,281,0.0,0.0,83,0.00,,---,0.00,VWS V14.01,2013-05-04 08:01:00,
2013-05-04 04:06:00,57.6,52.8,29.89,SSW,195,0.0,1.0,84,0.00,,---,0.00,VWS V14.01,2013-05-04 08:06:00,
2013-05-04 04:10:00,57.6,52.5,29.89,WSW,237,0.0,1.0,83,0.00,,---,0.00,VWS V14.01,2013-05-04 08:10:00,
2013-05-04 04:11:00,57.5,52.4,29.88,North,356,0.0,0.0,83,0.00,,---,0.00,VWS V14.01,2013-05-04 08:11:00,
2013-05-04 04:16:00,57.5,52.4,29.88,SE,132,0.0,1.0,83,0.00,,---,0.00,VWS V14.01,2013-05-04 08:16:00,
2013-05-04 04:20:00,57.4,52.3,29.89,NW,316,0.0,1.0,83,0.00,,---,0.00,VWS V14.01,2013-05-04 08:20:00,
2013-05-04 04:21:00,57.4,52.3,29.89,NNE,26,0.0,0.0,83,0.00,,---,0.00,VWS V14.01,2013-05-04 08:21:00,
2013-05-04 04:26:00,57.3,52.5,29.89,East,82,0.0,2.0,84,0.00,,---,0.00,VWS V14.01,2013-05-04 08:26:00,
2013-05-04 04:30:00,57.0,52.2,29.89,NW,323,0.0,0.0,84,0.00,,---,0.00,VWS V14.01,2013-05-04 08:30:00,
2013-05-04 04:35:00,56.7,52.2,29.89,NNW,332,0.0,2.0,85,0.00,,---,0.00,VWS V14.01,2013-05-04 08:35:00,
2013-05-04 04:40:00,56.5,52.0,29.89,ENE,57,0.0,2.0,85,0.00,,---,0.00,VWS V14.01,2013-05-04 08:40:00,
2013-05-04 04:45:00,56.2,51.4,29.89,WNW,303,1.0,3.0,84,0.00,,---,0.00,VWS V14.01,2013-05-04 08:45:00,
2013-05-04 04:50:00,56.1,51.7,29.89,SW,214,0.0,1.0,85,0.00,,---,0.00,VWS V14.01,2013-05-04 08:50:00,
2013-05-04 04:55:00,55.9,51.5,29.88,NW,316,0.0,1.0,85,0.00,,---,0.00,VWS V14.01,2013-05-04 08:55:00,
2013-05-04 05:00:00,55.8,51.4,29.89,SW,228,0.0,1.0,85,0.00,,---,0.00,VWS V14.01,2013-05-04 09:00:00,
2013-05-04 05:01:00,55.8,51.4,29.89,NE,40,0.0,1.0,85,0.00,,---,0.00,VWS V14.01,2013-05-04 09:01:00,
2013-05-04 05:06:00,55.7,51.6,29.89,NW,321,0.0,1.0,86,0.00,,---,0.00,VWS V14.01,2013-05-04 09:06:00,
2013-05-04 05:10:00,55.6,51.8,29.89,West,259,0.0,1.0,87,0.00,,---,0.00,VWS V14.01,2013-05-04 09:10:00,
2013-05-04 05:11:00,55.6,51.8,29.89,West,259,0.0,0.0,87,0.00,,---,0.00,VWS V14.01,2013-05-04 09:11:00,
2013-05-04 05:15:00,55.5,51.7,29.89,WNW,291,0.0,2.0,87,0.00,,---,0.00,VWS V14.01,2013-05-04 09:15:00,
2013-05-04 05:20:00,55.3,51.8,29.89,NW,314,0.0,1.0,88,0.00,,---,0.00,VWS V14.01,2013-05-04 09:20:00,
2013-05-04 05:25:00,55.1,51.6,29.90,East,82,0.0,1.0,88,0.00,,---,0.00,VWS V14.01,2013-05-04 09:25:00,
2013-05-04 05:30:00,54.9,51.7,29.90,East,80,0.0,0.0,89,0.01,,---,0.01,VWS V14.01,2013-05-04 09:30:00,
2013-05-04 05:35:00,54.7,51.8,29.90,East,82,0.0,1.0,90,0.01,,---,0.01,VWS V14.01,2013-05-04 09:35:00,
2013-05-04 05:40:00,54.5,51.6,29.90,SSE,160,1.0,1.0,90,0.01,,---,0.01,VWS V14.01,2013-05-04 09:40:00,
2013-05-04 05:45:00,54.0,50.8,29.90,NW,323,0.0,1.0,89,0.01,,---,0.01,VWS V14.01,2013-05-04 09:45:00,
2013-05-04 05:50:00,53.6,50.4,29.90,NE,46,1.0,1.0,89,0.02,,---,0.02,VWS V14.01,2013-05-04 09:50:00,
2013-05-04 05:55:00,53.2,50.3,29.90,NW,312,0.0,1.0,90,0.03,,---,0.03,VWS V14.01,2013-05-04 09:55:00,
2013-05-04 06:00:00,53.0,50.5,29.90,WSW,252,0.0,0.0,91,0.04,,---,0.04,VWS V14.01,2013-05-04 10:00:00,
2013-05-04 06:05:00,52.7,50.2,29.90,NE,43,0.0,1.0,91,0.05,,---,0.05,VWS V14.01,2013-05-04 10:05:00,
2013-05-04 06:10:00,52.5,50.2,29.91,NE,53,0.0,0.0,92,0.06,,---,0.06,VWS V14.01,2013-05-04 10:10:00,
2013-05-04 06:15:00,52.4,50.2,29.91,SW,229,0.0,3.0,92,0.07,,---,0.07,VWS V14.01,2013-05-04 10:15:00,
2013-05-04 06:20:00,52.2,50.0,29.91,SSW,208,0.0,0.0,92,0.09,,---,0.09,VWS V14.01,2013-05-04 10:20:00,
2013-05-04 06:25:00,52.1,50.1,29.91,NE,49,0.0,1.0,93,0.10,,---,0.10,VWS V14.01,2013-05-04 10:25:00,
2013-05-04 06:30:00,52.1,50.1,29.91,NE,51,0.0,0.0,93,0.10,,---,0.11,VWS V14.01,2013-05-04 10:30:00,
2013-05-04 06:35:00,51.9,49.9,29.91,WSW,242,0.0,1.0,93,0.10,,---,0.11,VWS V14.01,2013-05-04 10:35:00,
2013-05-04 06:40:00,51.8,49.8,29.92,WNW,303,0.0,0.0,93,0.11,,---,0.12,VWS V14.01,2013-05-04 10:40:00,
2013-05-04 06:45:00,51.6,49.7,29.92,WSW,248,0.0,1.0,93,0.11,,---,0.12,VWS V14.01,2013-05-04 10:45:00,
2013-05-04 06:50:00,51.2,49.2,29.92,West,268,0.0,0.0,93,0.11,,---,0.13,VWS V14.01,2013-05-04 10:50:00,
2013-05-04 06:55:00,50.9,49.0,29.92,West,274,0.0,5.0,93,0.11,,---,0.13,VWS V14.01,2013-05-04 10:55:00,
2013-05-04 07:00:00,50.6,48.7,29.92,WSW,250,0.0,1.0,93,0.09,,---,0.13,VWS V14.01,2013-05-04 11:00:00,
2013-05-04 07:05:00,50.3,48.4,29.92,WNW,303,0.0,1.0,93,0.11,,---,0.15,VWS V14.01,2013-05-04 11:05:00,
2013-05-04 07:10:00,50.1,48.2,29.91,East,100,0.0,0.0,93,0.10,,---,0.16,VWS V14.01,2013-05-04 11:10:00,
2013-05-04 07:15:00,50.0,48.1,29.92,NNW,335,0.0,1.0,93,0.12,,---,0.18,VWS V14.01,2013-05-04 11:15:00,
2013-05-04 07:20:00,49.9,48.2,29.92,NE,34,0.0,0.0,94,0.10,,---,0.19,VWS V14.01,2013-05-04 11:20:00,
2013-05-04 07:25:00,49.8,48.2,29.91,NNE,24,0.0,1.0,94,0.11,,---,0.20,VWS V14.01,2013-05-04 11:25:00,
2013-05-04 07:30:00,49.7,48.0,29.92,ENE,70,0.0,0.0,94,0.11,,---,0.21,VWS V14.01,2013-05-04 11:30:00,
2013-05-04 07:35:00,49.6,48.0,29.91,NNW,342,0.0,1.0,94,0.12,,---,0.22,VWS V14.01,2013-05-04 11:35:00,
2013-05-04 07:40:00,49.6,48.0,29.92,NE,44,0.0,1.0,94,0.10,,---,0.22,VWS V14.01,2013-05-04 11:40:00,
2013-05-04 07:46:00,49.5,47.8,29.92,ENE,70,0.0,1.0,94,0.11,,---,0.23,VWS V14.01,2013-05-04 11:46:00,
2013-05-04 07:50:00,49.4,47.8,29.91,NNW,328,0.0,1.0,94,0.11,,---,0.23,VWS V14.01,2013-05-04 11:50:00,
2013-05-04 07:51:00,49.5,47.8,29.92,NNW,329,0.0,0.0,94,0.10,,---,0.23,VWS V14.01,2013-05-04 11:51:00,
2013-05-04 07:56:00,49.5,48.1,29.91,NE,41,0.0,1.0,95,0.11,,---,0.24,VWS V14.01,2013-05-04 11:56:00,
2013-05-04 08:00:00,49.5,48.1,29.92,WSW,248,0.0,1.0,95,0.11,,---,0.24,VWS V14.01,2013-05-04 12:00:00,
2013-05-04 08:01:00,49.4,48.0,29.92,WSW,246,0.0,0.0,95,0.11,,---,0.24,VWS V14.01,2013-05-04 12:01:00,
2013-05-04 08:06:00,49.4,48.0,29.91,NNW,342,0.0,1.0,95,0.12,,---,0.25,VWS V14.01,2013-05-04 12:06:00,
2013-05-04 08:10:00,49.4,48.0,29.91,WSW,257,0.0,2.0,95,0.12,,---,0.25,VWS V14.01,2013-05-04 12:10:00,
2013-05-04 08:11:00,49.4,48.0,29.91,WSW,239,0.0,0.0,95,0.09,,---,0.25,VWS V14.01,2013-05-04 12:11:00,
2013-05-04 08:16:00,49.5,48.1,29.91,NE,46,0.0,1.0,95,0.10,,---,0.26,VWS V14.01,2013-05-04 12:16:00,
2013-05-04 08:20:00,49.5,48.1,29.91,ENE,61,0.0,1.0,95,0.11,,---,0.27,VWS V14.01,2013-05-04 12:20:00,
2013-05-04 08:21:00,49.5,48.1,29.91,ENE,60,0.0,0.0,95,0.09,,---,0.28,VWS V14.01,2013-05-04 12:21:00,
2013-05-04 08:27:00,49.5,48.1,29.90,ENE,71,0.0,1.0,95,0.09,,---,0.28,VWS V14.01,2013-05-04 12:27:00,
2013-05-04 08:30:00,49.6,48.2,29.90,SW,236,0.0,1.0,95,0.10,,---,0.29,VWS V14.01,2013-05-04 12:30:00,
2013-05-04 08:32:00,49.6,48.2,29.90,WSW,237,0.0,0.0,95,0.09,,---,0.29,VWS V14.01,2013-05-04 12:32:00,
2013-05-04 08:37:00,49.7,48.3,29.90,NE,34,0.0,1.0,95,0.11,,---,0.31,VWS V14.01,2013-05-04 12:37:00,
2013-05-04 08:40:00,49.7,48.6,29.91,NNE,28,0.0,1.0,96,0.12,,---,0.32,VWS V14.01,2013-05-04 12:40:00,
2013-05-04 08:42:00,49.7,48.3,29.91,NE,34,0.0,1.0,95,0.10,,---,0.32,VWS V14.01,2013-05-04 12:42:00,
2013-05-04 08:47:00,49.7,48.3,29.91,WNW,287,0.0,1.0,95,0.12,,---,0.34,VWS V14.01,2013-05-04 12:47:00,
2013-05-04 08:50:00,49.7,48.3,29.91,South,188,0.0,1.0,95,0.13,,---,0.35,VWS V14.01,2013-05-04 12:50:00,
2013-05-04 08:52:00,49.7,48.3,29.91,South,188,0.0,0.0,95,0.13,,---,0.36,VWS V14.01,2013-05-04 12:52:00,
2013-05-04 08:57:00,49.8,48.4,29.91,ENE,57,0.0,1.0,95,0.14,,---,0.37,VWS V14.01,2013-05-04 12:57:00,
2013-05-04 09:00:00,49.8,48.7,29.91,NW,307,0.0,1.0,96,0.14,,---,0.37,VWS V14.01,2013-05-04 13:00:00,
2013-05-04 09:02:00,49.8,48.7,29.91,NE,49,1.0,1.0,96,0.14,,---,0.38,VWS V14.01,2013-05-04 13:02:00,
2013-05-04 09:03:00,49.8,48.7,29.91,NE,50,0.0,1.0,96,0.14,,---,0.38,VWS V14.01,2013-05-04 13:03:00,
2013-05-04 09:08:00,49.8,48.7,29.91,NW,307,0.0,1.0,96,0.16,,---,0.40,VWS V14.01,2013-05-04 13:08:00,
2013-05-04 09:10:00,49.9,48.8,29.91,NW,307,0.0,1.0,96,0.17,,---,0.41,VWS V14.01,2013-05-04 13:10:00,
2013-05-04 09:13:00,49.9,48.8,29.91,West,276,0.0,1.0,96,0.16,,---,0.41,VWS V14.01,2013-05-04 13:13:00,
2013-05-04 09:18:00,49.9,48.8,29.92,East,79,0.0,1.0,96,0.17,,---,0.42,VWS V14.01,2013-05-04 13:18:00,
2013-05-04 09:20:00,50.0,48.9,29.92,East,79,0.0,1.0,96,0.18,,---,0.43,VWS V14.01,2013-05-04 13:20:00,
2013-05-04 09:23:00,49.9,48.8,29.91,WSW,246,0.0,0.0,96,0.16,,---,0.43,VWS V14.01,2013-05-04 13:23:00,
2013-05-04 09:28:00,49.9,48.5,29.91,NNE,15,0.0,2.0,95,0.17,,---,0.44,VWS V14.01,2013-05-04 13:28:00,
2013-05-04 09:30:00,49.9,48.8,29.91,SE,124,0.0,2.0,96,0.17,,---,0.44,VWS V14.01,2013-05-04 13:30:00,
2013-05-04 09:33:00,49.9,48.8,29.90,West,273,0.0,0.0,96,0.15,,---,0.44,VWS V14.01,2013-05-04 13:33:00,
2013-05-04 09:38:00,50.0,48.9,29.90,SE,135,0.0,1.0,96,0.15,,---,0.44,VWS V14.01,2013-05-04 13:38:00,
2013-05-04 09:40:00,50.0,48.9,29.91,SE,141,0.0,1.0,96,0.15,,---,0.44,VWS V14.01,2013-05-04 13:40:00,
2013-05-04 09:43:00,50.1,49.0,29.90,NW,317,0.0,5.0,96,0.12,,---,0.44,VWS V14.01,2013-05-04 13:43:00,
2013-05-04 09:48:00,50.0,48.9,29.90,WNW,287,0.0,5.0,96,0.13,,---,0.45,VWS V14.01,2013-05-04 13:48:00,
2013-05-04 09:50:00,50.0,48.9,29.90,NNE,26,0.0,5.0,96,0.13,,---,0.45,VWS V14.01,2013-05-04 13:50:00,
2013-05-04 09:53:00,50.1,49.0,29.90,NNW,329,0.0,1.0,96,0.10,,---,0.45,VWS V14.01,2013-05-04 13:53:00,
2013-05-04 09:58:00,50.0,48.9,29.90,NE,46,1.0,1.0,96,0.10,,---,0.45,VWS V14.01,2013-05-04 13:58:00,
2013-05-04 10:00:00,50.0,48.6,29.90,NE,40,0.0,1.0,95,0.10,,---,0.45,VWS V14.01,2013-05-04 14:00:00,
2013-05-04 10:03:00,50.0,48.9,29.91,ENE,78,0.0,1.0,96,0.08,,---,0.45,VWS V14.01,2013-05-04 14:03:00,
2013-05-04 10:08:00,50.0,48.9,29.91,SW,224,0.0,2.0,96,0.08,,---,0.45,VWS V14.01,2013-05-04 14:08:00,
2013-05-04 10:10:00,50.0,48.9,29.90,WSW,250,0.0,2.0,96,0.08,,---,0.45,VWS V14.01,2013-05-04 14:10:00,
2013-05-04 10:13:00,50.0,48.9,29.90,WSW,252,0.0,1.0,96,0.04,,---,0.45,VWS V14.01,2013-05-04 14:13:00,
2013-05-04 10:18:00,50.0,48.9,29.90,WSW,246,0.0,1.0,96,0.04,,---,0.45,VWS V14.01,2013-05-04 14:18:00,
2013-05-04 10:20:00,50.1,49.0,29.90,ESE,109,0.0,1.0,96,0.05,,---,0.46,VWS V14.01,2013-05-04 14:20:00,
2013-05-04 10:23:00,50.0,48.9,29.90,ENE,75,0.0,1.0,96,0.03,,---,0.46,VWS V14.01,2013-05-04 14:23:00,
2013-05-04 10:28:00,49.9,48.5,29.90,West,280,0.0,1.0,95,0.03,,---,0.46,VWS V14.01,2013-05-04 14:28:00,
2013-05-04 10:30:00,49.9,48.5,29.90,WNW,285,0.0,1.0,95,0.03,,---,0.46,VWS V14.01,2013-05-04 14:30:00,
2013-05-04 10:33:00,49.9,48.8,29.90,NNE,19,0.0,1.0,96,0.03,,---,0.47,VWS V14.01,2013-05-04 14:33:00,
2013-05-04 10:38:00,50.1,49.0,29.90,NE,44,0.0,1.0,96,0.03,,---,0.47,VWS V14.01,2013-05-04 14:38:00,
2013-05-04 10:40:00,50.2,49.1,29.90,NE,50,0.0,1.0,96,0.03,,---,0.47,VWS V14.01,2013-05-04 14:40:00,
2013-05-04 10:43:00,50.3,49.2,29.90,West,259,0.0,0.0,96,0.04,,---,0.48,VWS V14.01,2013-05-04 14:43:00,
2013-05-04 10:48:00,50.5,49.4,29.90,North,9,0.0,1.0,96,0.04,,---,0.48,VWS V14.01,2013-05-04 14:48:00,
2013-05-04 10:50:00,50.5,49.4,29.90,SW,231,0.0,2.0,96,0.05,,---,0.49,VWS V14.01,2013-05-04 14:50:00,
2013-05-04 10:53:00,50.6,49.5,29.90,SW,219,0.0,1.0,96,0.04,,---,0.49,VWS V14.01,2013-05-04 14:53:00,
2013-05-04 10:58:00,50.6,49.5,29.89,WNW,284,0.0,2.0,96,0.04,,---,0.49,VWS V14.01,2013-05-04 14:58:00,
2013-05-04 11:00:00,50.6,49.5,29.89,SW,225,0.0,2.0,96,0.04,,---,0.49,VWS V14.01,2013-05-04 15:00:00,
2013-05-04 11:03:00,50.6,49.5,29.89,West,280,0.0,1.0,96,0.04,,---,0.49,VWS V14.01,2013-05-04 15:03:00,
2013-05-04 11:08:00,50.7,49.6,29.89,NNE,19,0.0,1.0,96,0.05,,---,0.50,VWS V14.01,2013-05-04 15:08:00,
2013-05-04 11:10:00,50.8,49.7,29.89,NNE,19,0.0,1.0,96,0.05,,---,0.50,VWS V14.01,2013-05-04 15:10:00,
2013-05-04 11:13:00,50.8,49.7,29.90,West,271,0.0,1.0,96,0.05,,---,0.50,VWS V14.01,2013-05-04 15:13:00,
2013-05-04 11:18:00,50.8,49.7,29.89,ESE,108,0.0,1.0,96,0.05,,---,0.50,VWS V14.01,2013-05-04 15:18:00,
2013-05-04 11:20:00,50.7,49.6,29.89,WSW,243,0.0,1.0,96,0.05,,---,0.50,VWS V14.01,2013-05-04 15:20:00,
2013-05-04 11:23:00,50.7,49.6,29.89,ENE,59,0.0,1.0,96,0.04,,---,0.50,VWS V14.01,2013-05-04 15:23:00,
2013-05-04 11:28:00,50.7,49.6,29.90,SW,222,0.0,1.0,96,0.04,,---,0.50,VWS V14.01,2013-05-04 15:28:00,
2013-05-04 11:30:00,50.7,49.6,29.90,WSW,248,0.0,1.0,96,0.04,,---,0.50,VWS V14.01,2013-05-04 15:30:00,
2013-05-04 11:33:00,50.6,49.2,29.90,WSW,253,0.0,0.0,95,0.04,,---,0.50,VWS V14.01,2013-05-04 15:33:00,
2013-05-04 11:38:00,50.6,49.5,29.90,NE,34,0.0,0.0,96,0.04,,---,0.50,VWS V14.01,2013-05-04 15:38:00,
2013-05-04 11:40:00,50.7,49.6,29.90,WSW,251,0.0,1.0,96,0.04,,---,0.50,VWS V14.01,2013-05-04 15:40:00,
2013-05-04 11:43:00,50.7,49.6,29.90,WSW,245,1.0,1.0,96,0.03,,---,0.50,VWS V14.01,2013-05-04 15:43:00,
2013-05-04 11:48:00,50.6,49.5,29.90,NNE,26,0.0,1.0,96,0.03,,---,0.50,VWS V14.01,2013-05-04 15:48:00,
2013-05-04 11:50:00,50.7,49.6,29.90,East,96,0.0,1.0,96,0.04,,---,0.51,VWS V14.01,2013-05-04 15:50:00,
2013-05-04 11:53:00,50.6,49.5,29.89,NNW,329,0.0,2.0,96,0.02,,---,0.51,VWS V14.01,2013-05-04 15:53:00,
2013-05-04 11:58:00,50.7,49.6,29.90,SE,129,0.0,2.0,96,0.02,,---,0.51,VWS V14.01,2013-05-04 15:58:00,
2013-05-04 12:00:00,50.7,49.6,29.90,SE,131,0.0,2.0,96,0.02,,---,0.51,VWS V14.01,2013-05-04 16:00:00,
2013-05-04 12:03:00,50.7,49.6,29.90,SW,229,0.0,1.0,96,0.02,,---,0.51,VWS V14.01,2013-05-04 16:03:00,
2013-05-04 12:08:00,50.7,49.6,29.89,WSW,250,0.0,1.0,96,0.03,,---,0.52,VWS V14.01,2013-05-04 16:08:00,
2013-05-04 12:10:00,50.8,49.7,29.89,NE,40,0.0,1.0,96,0.03,,---,0.52,VWS V14.01,2013-05-04 16:10:00,
2013-05-04 12:13:00,50.8,49.7,29.89,North,5,0.0,1.0,96,0.02,,---,0.52,VWS V14.01,2013-05-04 16:13:00,
2013-05-04 12:18:00,51.0,49.9,29.88,SE,131,0.0,1.0,96,0.03,,---,0.53,VWS V14.01,2013-05-04 16:18:00,
2013-05-04 12:20:00,51.0,49.9,29.88,ENE,72,0.0,1.0,96,0.03,,---,0.53,VWS V14.01,2013-05-04 16:20:00,
2013-05-04 12:23:00,50.9,49.8,29.88,East,81,0.0,1.0,96,0.04,,---,0.54,VWS V14.01,2013-05-04 16:23:00,
2013-05-04 12:28:00,51.0,49.9,29.89,South,184,0.0,1.0,96,0.05,,---,0.55,VWS V14.01,2013-05-04 16:28:00,
2013-05-04 12:30:00,51.0,49.9,29.89,SW,226,0.0,1.0,96,0.05,,---,0.55,VWS V14.01,2013-05-04 16:30:00,
2013-05-04 12:33:00,51.1,50.0,29.89,ENE,63,0.0,1.0,96,0.06,,---,0.56,VWS V14.01,2013-05-04 16:33:00,
2013-05-04 12:38:00,51.3,50.2,29.89,SW,225,0.0,1.0,96,0.07,,---,0.57,VWS V14.01,2013-05-04 16:38:00,
2013-05-04 12:40:00,51.3,50.2,29.89,SW,228,1.0,1.0,96,0.07,,---,0.57,VWS V14.01,2013-05-04 16:40:00,
2013-05-04 12:43:00,51.4,50.3,29.88,NW,304,0.0,1.0,96,0.08,,---,0.58,VWS V14.01,2013-05-04 16:43:00,
2013-05-04 12:48:00,51.5,50.4,29.88,NE,54,0.0,1.0,96,0.08,,---,0.58,VWS V14.01,2013-05-04 16:48:00,
2013-05-04 12:50:00,51.6,50.5,29.88,NE,54,0.0,1.0,96,0.08,,---,0.58,VWS V14.01,2013-05-04 16:50:00,
2013-05-04 12:53:00,51.7,50.6,29.87,SW,219,0.0,0.0,96,0.08,,---,0.59,VWS V14.01,2013-05-04 16:53:00,
2013-05-04 12:58:00,51.9,51.1,29.87,NW,321,0.0,1.0,97,0.08,,---,0.59,VWS V14.01,2013-05-04 16:58:00,
2013-05-04 13:00:00,52.0,51.2,29.87,NW,317,0.0,1.0,97,0.08,,---,0.59,VWS V14.01,2013-05-04 17:00:00,
2013-05-04 13:03:00,52.0,50.9,29.86,NE,39,0.0,1.0,96,0.08,,---,0.59,VWS V14.01,2013-05-04 17:03:00,
2013-05-04 13:08:00,52.1,51.0,29.87,SW,224,0.0,2.0,96,0.08,,---,0.59,VWS V14.01,2013-05-04 17:08:00,
2013-05-04 13:10:00,52.1,51.0,29.87,NE,49,0.0,2.0,96,0.08,,---,0.59,VWS V14.01,2013-05-04 17:10:00,
2013-05-04 13:13:00,52.1,51.0,29.87,ENE,65,0.0,1.0,96,0.07,,---,0.59,VWS V14.01,2013-05-04 17:13:00,
2013-05-04 13:18:00,52.2,51.1,29.87,SE,131,0.0,1.0,96,0.09,,---,0.61,VWS V14.01,2013-05-04 17:18:00,
2013-05-04 13:20:00,52.2,51.1,29.87,SE,132,0.0,1.0,96,0.09,,---,0.61,VWS V14.01,2013-05-04 17:20:00,
2013-05-04 13:23:00,52.3,51.2,29.86,SE,127,0.0,1.0,96,0.08,,---,0.61,VWS V14.01,2013-05-04 17:23:00,
2013-05-04 13:28:00,52.4,51.3,29.86,SE,129,0.0,1.0,96,0.09,,---,0.62,VWS V14.01,2013-05-04 17:28:00,
2013-05-04 13:30:00,52.4,51.3,29.86,West,276,0.0,1.0,96,0.09,,---,0.62,VWS V14.01,2013-05-04 17:30:00,
2013-05-04 13:33:00,52.4,51.3,29.85,NE,34,0.0,1.0,96,0.07,,---,0.62,VWS V14.01,2013-05-04 17:33:00,
2013-05-04 13:38:00,52.5,51.4,29.85,SW,236,0.0,2.0,96,0.07,,---,0.62,VWS V14.01,2013-05-04 17:38:00,
2013-05-04 13:40:00,52.5,51.4,29.85,NE,40,0.0,2.0,96,0.07,,---,0.62,VWS V14.01,2013-05-04 17:40:00,
2013-05-04 13:43:00,52.5,51.4,29.86,WSW,238,0.0,0.0,96,0.06,,---,0.63,VWS V14.01,2013-05-04 17:43:00,
2013-05-04 13:48:00,52.4,51.3,29.85,West,266,0.0,1.0,96,0.06,,---,0.63,VWS V14.01,2013-05-04 17:48:00,
2013-05-04 13:50:00,52.4,51.3,29.85,ENE,63,0.0,1.0,96,0.07,,---,0.64,VWS V14.01,2013-05-04 17:50:00,
2013-05-04 13:53:00,52.5,51.4,29.85,NE,43,1.0,1.0,96,0.07,,---,0.65,VWS V14.01,2013-05-04 17:53:00,
2013-05-04 13:58:00,52.4,51.3,29.85,West,262,0.0,1.0,96,0.08,,---,0.66,VWS V14.01,2013-05-04 17:58:00,
2013-05-04 14:00:00,52.4,51.3,29.85,NE,41,0.0,1.0,96,0.08,,---,0.66,VWS V14.01,2013-05-04 18:00:00,
2013-05-04 14:03:00,52.4,51.3,29.85,NE,34,0.0,1.0,96,0.08,,---,0.67,VWS V14.01,2013-05-04 18:03:00,
2013-05-04 14:08:00,52.4,51.3,29.85,WNW,295,0.0,1.0,96,0.08,,---,0.67,VWS V14.01,2013-05-04 18:08:00,
2013-05-04 14:10:00,52.4,51.3,29.85,WSW,257,0.0,1.0,96,0.08,,---,0.67,VWS V14.01,2013-05-04 18:10:00,
2013-05-04 14:13:00,52.4,51.3,29.86,SW,214,0.0,0.0,96,0.08,,---,0.67,VWS V14.01,2013-05-04 18:13:00,
2013-05-04 14:18:00,52.2,51.1,29.86,WSW,257,0.0,1.0,96,0.09,,---,0.68,VWS V14.01,2013-05-04 18:18:00,
2013-05-04 14:20:00,52.2,51.1,29.85,North,360,0.0,1.0,96,0.09,,---,0.68,VWS V14.01,2013-05-04 18:20:00,
2013-05-04 14:23:00,52.1,51.0,29.86,North,360,0.0,1.0,96,0.07,,---,0.68,VWS V14.01,2013-05-04 18:23:00,
2013-05-04 14:28:00,52.2,51.1,29.85,West,281,0.0,1.0,96,0.07,,---,0.68,VWS V14.01,2013-05-04 18:28:00,
2013-05-04 14:30:00,52.2,51.1,29.85,WSW,239,1.0,1.0,96,0.07,,---,0.68,VWS V14.01,2013-05-04 18:30:00,
2013-05-04 14:33:00,52.2,51.1,29.85,WNW,300,0.0,1.0,96,0.06,,---,0.68,VWS V14.01,2013-05-04 18:33:00,
2013-05-04 14:38:00,52.2,51.1,29.86,SW,236,0.0,1.0,96,0.07,,---,0.69,VWS V14.01,2013-05-04 18:38:00,
2013-05-04 14:40:00,52.3,51.2,29.85,ENE,71,0.0,1.0,96,0.07,,---,0.69,VWS V14.01,2013-05-04 18:40:00,
2013-05-04 14:43:00,52.3,51.2,29.85,WSW,255,0.0,1.0,96,0.07,,---,0.69,VWS V14.01,2013-05-04 18:43:00,
2013-05-04 14:48:00,52.2,51.1,29.86,NE,41,0.0,1.0,96,0.07,,---,0.69,VWS V14.01,2013-05-04 18:48:00,
2013-05-04 14:50:00,52.2,51.1,29.86,NNE,30,0.0,1.0,96,0.07,,---,0.69,VWS V14.01,2013-05-04 18:50:00,
2013-05-04 14:53:00,52.2,51.1,29.87,ENE,63,0.0,1.0,96,0.06,,---,0.70,VWS V14.01,2013-05-04 18:53:00,
2013-05-04 14:58:00,52.2,51.1,29.89,ENE,63,0.0,1.0,96,0.07,,---,0.71,VWS V14.01,2013-05-04 18:58:00,
2013-05-04 15:00:00,52.3,51.2,29.89,ENE,63,0.0,1.0,96,0.07,,---,0.71,VWS V14.01,2013-05-04 19:00:00,
2013-05-04 15:03:00,52.3,51.2,29.89,NE,54,0.0,1.0,96,0.05,,---,0.71,VWS V14.01,2013-05-04 19:03:00,
2013-05-04 15:08:00,52.4,51.3,29.88,NE,54,0.0,1.0,96,0.07,,---,0.73,VWS V14.01,2013-05-04 19:08:00,
2013-05-04 15:10:00,52.3,51.2,29.88,NE,54,0.0,1.0,96,0.10,,---,0.76,VWS V14.01,2013-05-04 19:10:00,
2013-05-04 15:13:00,52.4,51.3,29.87,NE,54,0.0,0.0,96,0.13,,---,0.80,VWS V14.01,2013-05-04 19:13:00,
2013-05-04 15:18:00,52.4,51.3,29.87,NE,54,0.0,0.0,96,0.16,,---,0.83,VWS V14.01,2013-05-04 19:18:00,
2013-05-04 15:20:00,52.4,51.3,29.87,NE,54,0.0,0.0,96,0.16,,---,0.83,VWS V14.01,2013-05-04 19:20:00,
2013-05-04 15:23:00,52.4,51.6,29.87,WSW,255,0.0,0.0,97,0.16,,---,0.84,VWS V14.01,2013-05-04 19:23:00,
2013-05-04 15:28:00,52.5,51.7,29.86,NW,326,0.0,0.0,97,0.18,,---,0.86,VWS V14.01,2013-05-04 19:28:00,
2013-05-04 15:30:00,52.5,51.4,29.86,NW,326,0.0,0.0,96,0.18,,---,0.86,VWS V14.01,2013-05-04 19:30:00,
2013-05-04 15:33:00,52.5,51.7,29.86,NW,326,0.0,0.0,97,0.19,,---,0.87,VWS V14.01,2013-05-04 19:33:00,
2013-05-04 15:38:00,52.5,51.7,29.86,NW,326,0.0,0.0,97,0.21,,---,0.89,VWS V14.01,2013-05-04 19:38:00,
2013-05-04 15:40:00,52.5,51.4,29.86,NW,323,0.0,0.0,96,0.22,,---,0.90,VWS V14.01,2013-05-04 19:40:00,
2013-05-04 15:43:00,52.4,51.3,29.86,WNW,284,0.0,1.0,96,0.24,,---,0.93,VWS V14.01,2013-05-04 19:43:00,
2013-05-04 15:48:00,52.4,51.3,29.86,NNE,22,0.0,1.0,96,0.25,,---,0.94,VWS V14.01,2013-05-04 19:48:00,
2013-05-04 15:50:00,52.4,51.3,29.87,NNE,22,0.0,1.0,96,0.25,,---,0.94,VWS V14.01,2013-05-04 19:50:00,
2013-05-04 15:53:00,52.4,51.6,29.86,NNE,22,0.0,0.0,97,0.27,,---,0.96,VWS V14.01,2013-05-04 19:53:00,
2013-05-04 15:58:00,52.4,51.3,29.84,NNE,22,0.0,0.0,96,0.30,,---,0.99,VWS V14.01,2013-05-04 19:58:00,
2013-05-04 16:00:00,52.4,51.3,29.83,East,84,0.0,0.0,96,0.31,,---,1.00,VWS V14.01,2013-05-04 20:00:00,
2013-05-04 16:03:00,52.4,51.3,29.84,East,84,0.0,0.0,96,0.31,,---,1.02,VWS V14.01,2013-05-04 20:03:00,
2013-05-04 16:08:00,52.5,51.7,29.85,East,83,0.0,0.0,97,0.34,,---,1.05,VWS V14.01,2013-05-04 20:08:00,
2013-05-04 16:10:00,52.5,51.7,29.85,East,84,0.0,0.0,97,0.36,,---,1.07,VWS V14.01,2013-05-04 20:10:00,
2013-05-04 16:13:00,52.6,51.8,29.86,East,84,0.0,0.0,97,0.33,,---,1.09,VWS V14.01,2013-05-04 20:13:00,
2013-05-04 16:18:00,52.6,51.8,29.87,East,84,0.0,0.0,97,0.37,,---,1.13,VWS V14.01,2013-05-04 20:18:00,
2013-05-04 16:20:00,52.6,51.8,29.88,East,84,0.0,0.0,97,0.37,,---,1.13,VWS V14.01,2013-05-04 20:20:00,
2013-05-04 16:23:00,52.7,51.9,29.89,East,84,0.0,0.0,97,0.33,,---,1.16,VWS V14.01,2013-05-04 20:23:00,
2013-05-04 16:28:00,52.7,51.9,29.88,East,84,0.0,0.0,97,0.40,,---,1.23,VWS V14.01,2013-05-04 20:28:00,
2013-05-04 16:30:00,52.6,51.8,29.87,East,83,0.0,0.0,97,0.43,,---,1.26,VWS V14.01,2013-05-04 20:30:00,
2013-05-04 16:33:00,52.6,51.5,29.84,East,88,0.0,0.0,96,0.44,,---,1.30,VWS V14.01,2013-05-04 20:33:00,
2013-05-04 16:38:00,52.5,51.4,29.86,East,87,0.0,0.0,96,0.47,,---,1.33,VWS V14.01,2013-05-04 20:38:00,
2013-05-04 16:40:00,52.5,51.4,29.86,East,88,0.0,0.0,96,0.49,,---,1.35,VWS V14.01,2013-05-04 20:40:00,
2013-05-04 16:43:00,52.5,51.7,29.90,East,87,0.0,0.0,97,0.46,,---,1.36,VWS V14.01,2013-05-04 20:43:00,
2013-05-04 16:48:00,52.6,51.8,29.88,East,88,0.0,0.0,97,0.48,,---,1.38,VWS V14.01,2013-05-04 20:48:00,
2013-05-04 16:50:00,52.6,51.8,29.87,East,94,0.0,0.0,97,0.50,,---,1.40,VWS V14.01,2013-05-04 20:50:00,
2013-05-04 16:53:00,52.6,51.8,29.87,East,94,0.0,0.0,97,0.50,,---,1.44,VWS V14.01,2013-05-04 20:53:00,
2013-05-04 16:58:00,52.7,51.9,29.87,East,94,0.0,0.0,97,0.55,,---,1.49,VWS V14.01,2013-05-04 20:58:00,
2013-05-04 17:00:00,52.8,52.0,29.87,East,94,0.0,0.0,97,0.56,,---,1.50,VWS V14.01,2013-05-04 21:00:00,
2013-05-04 17:03:00,52.9,52.1,29.88,East,93,0.0,0.0,97,0.51,,---,1.51,VWS V14.01,2013-05-04 21:03:00,
2013-05-04 17:08:00,53.0,52.2,29.89,East,94,0.0,0.0,97,0.53,,---,1.53,VWS V14.01,2013-05-04 21:08:00,
2013-05-04 17:10:00,53.1,52.3,29.89,East,94,0.0,0.0,97,0.53,,---,1.53,VWS V14.01,2013-05-04 21:10:00,
2013-05-04 17:13:00,53.1,52.3,29.87,East,94,0.0,0.0,97,0.47,,---,1.54,VWS V14.01,2013-05-04 21:13:00,
2013-05-04 17:18:00,53.2,52.4,29.87,East,98,0.0,0.0,97,0.51,,---,1.58,VWS V14.01,2013-05-04 21:18:00,
2013-05-04 17:20:00,53.2,52.4,29.87,East,98,0.0,0.0,97,0.52,,---,1.59,VWS V14.01,2013-05-04 21:20:00,
2013-05-04 17:23:00,53.2,52.4,29.87,East,98,0.0,0.0,97,0.48,,---,1.61,VWS V14.01,2013-05-04 21:23:00,
2013-05-04 17:28:00,53.2,52.4,29.87,East,98,0.0,0.0,97,0.49,,---,1.62,VWS V14.01,2013-05-04 21:28:00,
2013-05-04 17:30:00,53.2,52.4,29.87,East,98,0.0,0.0,97,0.49,,---,1.62,VWS V14.01,2013-05-04 21:30:00,
2013-05-04 17:33:00,53.2,52.4,29.86,East,97,0.0,0.0,97,0.36,,---,1.62,VWS V14.01,2013-05-04 21:33:00,
2013-05-04 17:38:00,53.4,52.6,29.86,East,98,0.0,0.0,97,0.37,,---,1.63,VWS V14.01,2013-05-04 21:38:00,
2013-05-04 17:40:00,53.4,52.6,29.87,East,98,0.0,0.0,97,0.38,,---,1.64,VWS V14.01,2013-05-04 21:40:00,
2013-05-04 17:43:00,53.5,52.7,29.86,East,97,0.0,0.0,97,0.29,,---,1.64,VWS V14.01,2013-05-04 21:43:00,
2013-05-04 17:48:00,53.5,52.7,29.86,East,98,0.0,1.0,97,0.30,,---,1.65,VWS V14.01,2013-05-04 21:48:00,
2013-05-04 17:50:00,53.5,52.7,29.86,East,98,0.0,1.0,97,0.30,,---,1.65,VWS V14.01,2013-05-04 21:50:00,
2013-05-04 17:53:00,53.6,52.8,29.85,East,97,0.0,0.0,97,0.25,,---,1.65,VWS V14.01,2013-05-04 21:53:00,
2013-05-04 17:58:00,53.6,52.8,29.85,East,98,0.0,0.0,97,0.26,,---,1.66,VWS V14.01,2013-05-04 21:58:00,
2013-05-04 18:00:00,53.6,52.8,29.85,East,99,0.0,0.0,97,0.26,,---,1.66,VWS V14.01,2013-05-04 22:00:00,
2013-05-04 18:03:00,53.7,52.9,29.85,South,191,0.0,0.0,97,0.16,,---,1.66,VWS V14.01,2013-05-04 22:03:00,
2013-05-04 18:08:00,53.7,52.9,29.86,SE,132,0.0,0.0,97,0.18,,---,1.68,VWS V14.01,2013-05-04 22:08:00,
2013-05-04 18:10:00,53.7,52.9,29.86,SE,134,0.0,0.0,97,0.18,,---,1.68,VWS V14.01,2013-05-04 22:10:00,
2013-05-04 18:13:00,53.7,52.9,29.86,SE,132,0.0,0.0,97,0.16,,---,1.69,VWS V14.01,2013-05-04 22:13:00,
2013-05-04 18:18:00,53.6,52.8,29.86,SE,133,0.0,1.0,97,0.17,,---,1.70,VWS V14.01,2013-05-04 22:18:00,
2013-05-04 18:20:00,53.6,52.8,29.86,SE,132,0.0,1.0,97,0.18,,---,1.71,VWS V14.01,2013-05-04 22:20:00,
2013-05-04 18:23:00,53.5,52.4,29.87,SE,132,0.0,0.0,96,0.12,,---,1.71,VWS V14.01,2013-05-04 22:23:00,
2013-05-04 18:28:00,53.4,52.6,29.87,SE,134,0.0,0.0,97,0.15,,---,1.74,VWS V14.01,2013-05-04 22:28:00,
2013-05-04 18:30:00,53.4,52.6,29.86,SE,134,0.0,0.0,97,0.16,,---,1.75,VWS V14.01,2013-05-04 22:30:00,
2013-05-04 18:33:00,53.4,52.6,29.86,SE,134,0.0,0.0,97,0.14,,---,1.76,VWS V14.01,2013-05-04 22:33:00,
2013-05-04 18:38:00,53.4,52.6,29.85,SSE,157,0.0,0.0,97,0.17,,---,1.79,VWS V14.01,2013-05-04 22:38:00,
2013-05-04 18:40:00,53.4,52.6,29.85,SSE,156,0.0,0.0,97,0.17,,---,1.79,VWS V14.01,2013-05-04 22:40:00,
2013-05-04 18:43:00,53.3,52.5,29.85,SSE,158,0.0,0.0,97,0.16,,---,1.80,VWS V14.01,2013-05-04 22:43:00,
2013-05-04 18:48:00,53.2,52.4,29.85,SE,143,0.0,1.0,97,0.17,,---,1.81,VWS V14.01,2013-05-04 22:48:00,
2013-05-04 18:50:00,53.2,52.4,29.85,East,96,0.0,1.0,97,0.17,,---,1.81,VWS V14.01,2013-05-04 22:50:00,
2013-05-04 18:53:00,53.2,52.4,29.85,ENE,77,0.0,0.0,97,0.17,,---,1.82,VWS V14.01,2013-05-04 22:53:00,
2013-05-04 18:58:00,53.2,52.4,29.84,ENE,72,1.0,1.0,97,0.17,,---,1.82,VWS V14.01,2013-05-04 22:58:00,
2013-05-04 19:00:00,53.2,52.4,29.84,ENE,72,0.0,1.0,97,0.18,,---,1.83,VWS V14.01,2013-05-04 23:00:00,
2013-05-04 19:03:00,53.2,52.4,29.84,ENE,63,0.0,1.0,97,0.17,,---,1.83,VWS V14.01,2013-05-04 23:03:00,
2013-05-04 19:08:00,53.2,52.4,29.84,ENE,74,0.0,1.0,97,0.17,,---,1.83,VWS V14.01,2013-05-04 23:08:00,
2013-05-04 19:10:00,53.2,52.4,29.84,ENE,65,0.0,1.0,97,0.17,,---,1.83,VWS V14.01,2013-05-04 23:10:00,
2013-05-04 19:13:00,53.2,52.4,29.84,South,169,0.0,1.0,97,0.15,,---,1.83,VWS V14.01,2013-05-04 23:13:00,
2013-05-04 19:18:00,53.1,52.3,29.84,ESE,105,0.0,1.0,97,0.16,,---,1.84,VWS V14.01,2013-05-04 23:18:00,
2013-05-04 19:20:00,53.1,52.3,29.84,ESE,105,0.0,1.0,97,0.16,,---,1.84,VWS V14.01,2013-05-04 23:20:00,
2013-05-04 19:23:00,53.1,52.3,29.84,SSE,159,0.0,1.0,97,0.13,,---,1.84,VWS V14.01,2013-05-04 23:23:00,
2013-05-04 19:28:00,53.1,52.3,29.84,SSE,165,0.0,1.0,97,0.15,,---,1.86,VWS V14.01,2013-05-04 23:28:00,
2013-05-04 19:30:00,53.1,52.3,29.84,SSE,166,0.0,1.0,97,0.16,,---,1.87,VWS V14.01,2013-05-04 23:30:00,
2013-05-04 19:33:00,53.1,52.3,29.84,SW,214,0.0,0.0,97,0.14,,---,1.89,VWS V14.01,2013-05-04 23:33:00,
2013-05-04 19:38:00,53.1,52.3,29.84,SSW,201,0.0,0.0,97,0.16,,---,1.91,VWS V14.01,2013-05-04 23:38:00,
2013-05-04 19:40:00,53.1,52.3,29.84,SSE,163,0.0,0.0,97,0.17,,---,1.92,VWS V14.01,2013-05-04 23:40:00,
2013-05-04 19:43:00,53.1,52.3,29.84,WSW,242,0.0,1.0,97,0.15,,---,1.94,VWS V14.01,2013-05-04 23:43:00,
2013-05-04 19:48:00,53.1,52.3,29.84,ENE,72,0.0,1.0,97,0.18,,---,1.97,VWS V14.01,2013-05-04 23:48:00,
2013-05-04 19:50:00,53.1,52.3,29.84,ENE,72,0.0,1.0,97,0.18,,---,1.97,VWS V14.01,2013-05-04 23:50:00,
2013-05-04 19:53:00,53.0,52.2,29.83,ESE,113,0.0,1.0,97,0.17,,---,1.98,VWS V14.01,2013-05-04 23:53:00,
2013-05-04 19:58:00,53.0,52.2,29.83,ESE,112,0.0,1.0,97,0.18,,---,1.99,VWS V14.01,2013-05-04 23:58:00,
2013-05-04 20:00:00,53.0,52.2,29.83,East,82,0.0,1.0,97,0.18,,---,1.99,VWS V14.01,2013-05-05 00:00:00,
2013-05-04 20:03:00,53.0,52.2,29.83,East,82,0.0,0.0,97,0.17,,---,2.00,VWS V14.01,2013-05-05 00:03:00,
2013-05-04 20:08:00,53.0,52.2,29.83,ENE,70,0.0,1.0,97,0.17,,---,2.00,VWS V14.01,2013-05-05 00:08:00,
2013-05-04 20:10:00,53.0,52.2,29.84,ENE,69,0.0,1.0,97,0.18,,---,2.01,VWS V14.01,2013-05-05 00:10:00,
2013-05-04 20:13:00,53.0,52.2,29.84,ENE,69,0.0,0.0,97,0.19,,---,2.02,VWS V14.01,2013-05-05 00:13:00,
2013-05-04 20:18:00,53.0,52.2,29.84,West,266,0.0,1.0,97,0.20,,---,2.03,VWS V14.01,2013-05-05 00:18:00,
2013-05-04 20:20:00,52.9,52.1,29.84,West,266,0.0,1.0,97,0.21,,---,2.04,VWS V14.01,2013-05-05 00:20:00,
2013-05-04 20:23:00,52.9,52.1,29.84,West,264,0.0,0.0,97,0.22,,---,2.06,VWS V14.01,2013-05-05 00:23:00,
2013-05-04 20:28:00,52.9,52.1,29.83,NW,319,0.0,0.0,97,0.25,,---,2.09,VWS V14.01,2013-05-05 00:28:00,
2013-05-04 20:30:00,52.9,52.1,29.83,NNW,347,0.0,1.0,97,0.26,,---,2.10,VWS V14.01,2013-05-05 00:30:00,
2013-05-04 20:33:00,52.9,52.1,29.83,NNW,340,0.0,0.0,97,0.25,,---,2.12,VWS V14.01,2013-05-05 00:33:00,
2013-05-04 20:38:00,52.9,52.1,29.83,North,352,0.0,0.0,97,0.27,,---,2.14,VWS V14.01,2013-05-05 00:38:00,
2013-05-04 20:40:00,52.9,52.1,29.82,NNE,32,0.0,1.0,97,0.28,,---,2.15,VWS V14.01,2013-05-05 00:40:00,
2013-05-04 20:43:00,52.9,52.1,29.83,NE,46,0.0,2.0,97,0.24,,---,2.16,VWS V14.01,2013-05-05 00:43:00,
2013-05-04 20:48:00,52.9,52.1,29.83,NE,42,0.0,2.0,97,0.25,,---,2.17,VWS V14.01,2013-05-05 00:48:00,
2013-05-04 20:50:00,52.9,52.1,29.83,NE,41,0.0,2.0,97,0.25,,---,2.17,VWS V14.01,2013-05-05 00:50:00,
2013-05-04 20:53:00,52.9,52.1,29.83,ENE,77,0.0,1.0,97,0.21,,---,2.18,VWS V14.01,2013-05-05 00:53:00,
2013-05-04 20:58:00,52.9,52.1,29.83,East,81,0.0,1.0,97,0.23,,---,2.20,VWS V14.01,2013-05-05 00:58:00,
2013-05-04 21:00:00,52.9,52.1,29.83,South,190,0.0,1.0,97,0.23,,---,2.20,VWS V14.01,2013-05-05 01:00:00,
2013-05-04 21:03:00,52.8,52.0,29.83,SSW,195,0.0,1.0,97,0.23,,---,2.22,VWS V14.01,2013-05-05 01:03:00,
2013-05-04 21:08:00,52.7,51.9,29.83,ENE,72,0.0,1.0,97,0.25,,---,2.24,VWS V14.01,2013-05-05 01:08:00,
2013-05-04 21:10:00,52.7,51.9,29.83,SE,134,0.0,1.0,97,0.25,,---,2.24,VWS V14.01,2013-05-05 01:10:00,
2013-05-04 21:13:00,52.7,51.9,29.83,ENE,72,0.0,1.0,97,0.24,,---,2.25,VWS V14.01,2013-05-05 01:13:00,
2013-05-04 21:18:00,52.7,51.9,29.83,ENE,74,0.0,1.0,97,0.24,,---,2.25,VWS V14.01,2013-05-05 01:18:00,
2013-05-04 21:20:00,52.8,52.0,29.83,East,90,0.0,3.0,97,0.24,,---,2.25,VWS V14.01,2013-05-05 01:20:00,
2013-05-04 21:23:00,52.8,52.0,29.84,ENE,74,0.0,0.0,97,0.22,,---,2.26,VWS V14.01,2013-05-05 01:23:00,
2013-05-04 21:28:00,52.8,52.0,29.84,East,91,0.0,1.0,97,0.24,,---,2.28,VWS V14.01,2013-05-05 01:28:00,
2013-05-04 21:30:00,52.8,52.0,29.84,East,91,0.0,1.0,97,0.25,,---,2.29,VWS V14.01,2013-05-05 01:30:00,
2013-05-04 21:33:00,52.9,52.1,29.84,East,91,0.0,0.0,97,0.20,,---,2.30,VWS V14.01,2013-05-05 01:33:00,
2013-05-04 21:38:00,52.9,52.1,29.84,ESE,106,0.0,1.0,97,0.21,,---,2.31,VWS V14.01,2013-05-05 01:38:00,
2013-05-04 21:40:00,52.9,52.1,29.84,East,101,0.0,1.0,97,0.22,,---,2.32,VWS V14.01,2013-05-05 01:40:00,
2013-05-04 21:43:00,52.9,52.1,29.84,South,190,0.0,0.0,97,0.17,,---,2.32,VWS V14.01,2013-05-05 01:43:00,
2013-05-04 21:48:00,53.0,52.2,29.83,NNW,347,0.0,0.0,97,0.19,,---,2.34,VWS V14.01,2013-05-05 01:48:00,
2013-05-04 21:50:00,53.0,52.2,29.83,ENE,68,0.0,0.0,97,0.19,,---,2.34,VWS V14.01,2013-05-05 01:50:00,
2013-05-04 21:53:00,53.0,52.2,29.84,SSW,200,0.0,0.0,97,0.17,,---,2.34,VWS V14.01,2013-05-05 01:53:00,
2013-05-04 21:58:00,53.0,52.2,29.84,SSW,194,0.0,0.0,97,0.18,,---,2.35,VWS V14.01,2013-05-05 01:58:00,
2013-05-04 22:00:00,53.0,52.2,29.84,SSW,195,0.0,0.0,97,0.19,,---,2.36,VWS V14.01,2013-05-05 02:00:00,
2013-05-04 22:03:00,53.1,52.3,29.84,SW,225,0.0,1.0,97,0.17,,---,2.37,VWS V14.01,2013-05-05 02:03:00,
2013-05-04 22:08:00,53.1,52.3,29.84,West,278,0.0,2.0,97,0.18,,---,2.38,VWS V14.01,2013-05-05 02:08:00,
2013-05-04 22:10:00,53.1,52.3,29.84,West,278,0.0,2.0,97,0.18,,---,2.38,VWS V14.01,2013-05-05 02:10:00,
2013-05-04 22:13:00,53.1,52.3,29.84,West,278,0.0,0.0,97,0.14,,---,2.38,VWS V14.01,2013-05-05 02:13:00,
2013-05-04 22:18:00,53.2,52.4,29.84,NNE,13,0.0,1.0,97,0.15,,---,2.39,VWS V14.01,2013-05-05 02:18:00,
2013-05-04 22:20:00,53.2,52.4,29.84,NE,40,0.0,1.0,97,0.15,,---,2.39,VWS V14.01,2013-05-05 02:20:00,
2013-05-04 22:23:00,53.3,52.5,29.84,NW,318,0.0,0.0,97,0.15,,---,2.40,VWS V14.01,2013-05-05 02:23:00,
2013-05-04 22:28:00,53.3,52.5,29.84,ENE,69,0.0,1.0,97,0.17,,---,2.42,VWS V14.01,2013-05-05 02:28:00,
2013-05-04 22:30:00,53.3,52.5,29.84,South,169,0.0,1.0,97,0.18,,---,2.43,VWS V14.01,2013-05-05 02:30:00,
2013-05-04 22:33:00,53.4,52.6,29.84,NE,54,0.0,1.0,97,0.16,,---,2.45,VWS V14.01,2013-05-05 02:33:00,
2013-05-04 22:38:00,53.4,52.6,29.83,NNE,15,0.0,1.0,97,0.19,,---,2.48,VWS V14.01,2013-05-05 02:38:00,
2013-05-04 22:40:00,53.4,52.6,29.83,NNE,16,0.0,1.0,97,0.20,,---,2.49,VWS V14.01,2013-05-05 02:40:00,
2013-05-04 22:43:00,53.4,52.6,29.84,NNE,16,0.0,0.0,97,0.17,,---,2.49,VWS V14.01,2013-05-05 02:43:00,
2013-05-04 22:48:00,53.4,52.6,29.84,NNE,32,0.0,0.0,97,0.18,,---,2.50,VWS V14.01,2013-05-05 02:48:00,
2013-05-04 22:50:00,53.4,52.6,29.84,NNE,28,0.0,0.0,97,0.18,,---,2.50,VWS V14.01,2013-05-05 02:50:00,
2013-05-04 22:53:00,53.4,52.6,29.84,NNW,339,0.0,1.0,97,0.16,,---,2.50,VWS V14.01,2013-05-05 02:53:00,
2013-05-04 22:58:00,53.4,52.6,29.83,NE,41,0.0,1.0,97,0.18,,---,2.52,VWS V14.01,2013-05-05 02:58:00,
2013-05-04 23:00:00,53.5,52.7,29.83,NE,41,0.0,1.0,97,0.18,,---,2.52,VWS V14.01,2013-05-05 03:00:00,
2013-05-04 23:03:00,53.5,52.7,29.83,NE,41,0.0,0.0,97,0.17,,---,2.53,VWS V14.01,2013-05-05 03:03:00,
2013-05-04 23:08:00,53.5,52.7,29.83,NE,41,0.0,1.0,97,0.17,,---,2.53,VWS V14.01,2013-05-05 03:08:00,
2013-05-04 23:10:00,53.6,52.8,29.83,NE,41,0.0,1.0,97,0.18,,---,2.54,VWS V14.01,2013-05-05 03:10:00,
2013-05-04 23:13:00,53.5,52.7,29.83,NE,41,0.0,0.0,97,0.17,,---,2.55,VWS V14.01,2013-05-05 03:13:00,
2013-05-04 23:18:00,53.6,52.8,29.83,NE,41,0.0,0.0,97,0.19,,---,2.57,VWS V14.01,2013-05-05 03:18:00,
2013-05-04 23:20:00,53.6,52.8,29.83,NE,41,0.0,0.0,97,0.20,,---,2.58,VWS V14.01,2013-05-05 03:20:00,
2013-05-04 23:23:00,53.6,52.8,29.83,NE,41,0.0,0.0,97,0.21,,---,2.60,VWS V14.01,2013-05-05 03:23:00,
2013-05-04 23:28:00,53.6,52.8,29.82,NE,41,0.0,0.0,97,0.23,,---,2.62,VWS V14.01,2013-05-05 03:28:00,
2013-05-04 23:30:00,53.6,52.8,29.82,NE,41,0.0,0.0,97,0.24,,---,2.63,VWS V14.01,2013-05-05 03:30:00,
2013-05-04 23:33:00,53.7,52.9,29.82,NE,41,0.0,0.0,97,0.22,,---,2.65,VWS V14.01,2013-05-05 03:33:00,
2013-05-04 23:38:00,53.7,52.9,29.82,NE,39,0.0,1.0,97,0.24,,---,2.67,VWS V14.01,2013-05-05 03:38:00,
2013-05-04 23:40:00,53.7,52.9,29.82,NE,39,0.0,1.0,97,0.25,,---,2.68,VWS V14.01,2013-05-05 03:40:00,
2013-05-04 23:43:00,53.8,53.0,29.82,NE,38,0.0,0.0,97,0.19,,---,2.68,VWS V14.01,2013-05-05 03:43:00,
2013-05-04 23:48:00,53.8,53.2,29.82,NE,39,0.0,0.0,98,0.20,,---,2.69,VWS V14.01,2013-05-05 03:48:00,
2013-05-04 23:50:00,53.8,53.2,29.82,NE,39,0.0,0.0,98,0.20,,---,2.69,VWS V14.01,2013-05-05 03:50:00,
2013-05-04 23:53:00,53.9,53.3,29.82,East,85,0.0,0.0,98,0.19,,---,2.69,VWS V14.01,2013-05-05 03:53:00,
2013-05-04 23:58:00,53.9,53.3,29.83,East,83,0.0,0.0,98,0.20,,---,2.70,VWS V14.01,2013-05-05 03:58:00,